Simultaneous Nadir Overpasses (SNOs) Predictions

Prediction of SNOs between AQUA and NOAA-19 Satellite Orbit:

Table of predicted SNOs for the next 14.0 days since TLE Epoch: 7/22/2016
Index Date (AQUA) Time (AQUA) Lat,Lon (AQUA) SZA (AQUA ) Date (NOAA-19) Time (NOAA-19) Lat,Lon (NOAA-19) SZA (NOAA-19 ) Distance(km) Time Diff (sec)
1 07/23/2016 07:31:11 80.89, 27.61 63.29 07/23/2016 07:30:13 80.88, 27.76 63.29 2.73 58
2 07/23/2016 08:20:37 -80.88,-164.56 116.74 07/23/2016 08:21:10 -80.87,-164.51 116.76 1.33 33
3 07/25/2016 13:04:55 -80.88, 124.33 116.27 07/25/2016 13:04:13 -80.89, 124.26 116.24 1.38 42
4 07/25/2016 13:54:21 80.87, -67.87 63.72 07/25/2016 13:55:14 80.86, -67.73 63.68 2.61 53
5 07/27/2016 18:38:39 80.88,-139.04 64.23 07/27/2016 18:38:17 80.89,-139.21 64.26 3.30 22
6 07/27/2016 19:28:05 -80.86, 28.85 115.81 07/27/2016 19:29:14 -80.86, 28.95 115.85 1.91 69
7 07/30/2016 00:12:24 -80.89, -42.65 115.22 07/30/2016 00:12:18 -80.89, -42.70 115.22 0.93 6
8 08/01/2016 05:46:07 80.87, 54.21 65.28 08/01/2016 05:46:20 80.88, 54.05 65.30 3.24 13
9 08/03/2016 10:30:26 80.91, -17.37 65.92 08/03/2016 10:29:23 80.90, -17.53 65.97 2.82 63




NCC Satellite Simultaneous Nadir Overpasses (SNOs) Prediction Service
